Regional Weather Roundup
Issued by NWS

Home | Current Version | Previous Version | Graphics & Text | Print | Product List | Glossary On
Versions: 1 2 3 4 5 6 7 8 9 10 11 12 13 14 15 16 17 18 19 20 21 22 23 24 25 26 27 28 29 30 31 32 33 34 35 36 37 38 39 40 41 42 43 44 45 46 47 48 49 50
000
ASUS43 KFSD 241202
RWRSD

WEATHER ROUNDUP FOR SOUTH DAKOTA
NATIONAL WEATHER SERVICE SIOUX FALLS SD
600 AM CST MON NOV 24 2014

NOTE: "FAIR" INDICATES FEW OR NO CLOUDS BELOW 12,000 FEET WITH NO
SIGNIFICANT WEATHER AND/OR OBSTRUCTIONS TO VISIBILITY.


SDZ001>005-009-010-012>017-241300-
NORTHWEST AND NORTH CENTRAL SOUTH DAKOTA

CITY           SKY/WX    TMP DP  RH WIND       PRES   REMARKS
BUFFALO          N/A     17  12  80 W5        29.71R WCI  10
FAITH            N/A     16  12  84 NW17      29.76R WCI   0
MOBRIDGE       PTCLDY    18  13  80 NW16      29.72R WCI   3
$$

SDZ012>016-024>037-041>051-057-063-072>074-241300-
SOUTHWEST AND SOUTH CENTRAL SOUTH DAKOTA

CITY           SKY/WX    TMP DP  RH WIND       PRES   REMARKS
RAPID CTY ARPT CLEAR     24  17  74 N10       29.75R WCI  14
PIERRE         CLEAR     20  14  77 NW22G32   29.72S WCI   3
CUSTER         PTCLDY    25  13  60 NW9       29.69S WCI  15
ELLSWORTH AFB  CLEAR     26  18  74 N10       29.74R WCI  15
PHILIP         CLEAR    N/A N/A N/A NW15      29.78R
PINE RIDGE     MOCLDY    21  17  84 S5        29.77R WCI  15
WINNER         CLOUDY    23  16  74 NW25G32   29.72R WCI   7
$$

SDZ004>011-016>023-039-040-241300-
NORTHEAST SOUTH DAKOTA

CITY           SKY/WX    TMP DP  RH WIND       PRES   REMARKS
ABERDEEN       FLURRIES  18  10  71 NW28G33   29.67R WCI  -1
WATERTOWN      FLURRIES  15   9  76 NW28G36   29.55R WCI  -5
SISSETON         N/A     14   8  77 N31       29.58S WCI  -7
$$

SDZ017-020-022-023-036>040-048>070-241300-
SOUTHEAST SOUTH DAKOTA

CITY           SKY/WX    TMP DP  RH WIND       PRES   REMARKS
SIOUX FALLS    FLURRIES  19  12  74 NW22G31   29.56R WCI   2
HURON          CLOUDY    19  13  77 N18G28    29.66R WCI   4
CHAMBERLAIN    CLOUDY    22  15  77 NW26      29.70R WCI   4
MITCHELL       CLOUDY    22  15  75 NW18G29   29.66R WCI   7
YANKTON        CLOUDY   N/A N/A N/A NW26G35   29.62R
$$

ABBREVIATIONS USED IN REMARKS
   TC - TEMPERATURE IN CELSIUS
  WCI - WIND CHILL INDEX
   HX - HEAT INDEX
  VSB - VISIBILITY



USA.gov is the U.S. government's official web portal to all federal, state and local government web resources and services.